Flag for Germany Weather past 2 weeks in Emden, Lower Saxony, Germany

Now
75 °F

Overcast.


Feels Like: 77 °F
Forecast: 59 / 62 °F
Wind: 1 mph from North

Location: Emden-Koenigspolder

Current Time: Sep 20, 2014 at 6:33:29 PM

Latest Report: Sep 20, 2014 at 3:00 PM


Visibility: 16 mi

Pressure: 29.90 "Hg

Humidity: 60%

Dew point: 60 °F

Location of EmdenLocation

Historic Weather in Emden — Graph

°F

Emden temperature yesterday

Maximum temperature yesterday: 77 °F (at 4:00 PM)
Minimum temperature yesterday: 52 °F (at 7:00 AM)
Average temperature yesterday: 63 °F

Past Weeks' High & Low Weather Summary

 TemperatureHumidityPressure
High77 °F (Sep 19, 4:00 PM)100% (Sep 6, 9:00 AM)30.28 "Hg (Sep 6, 9:00 AM)
Low51 °F (Sep 12, 8:00 AM)52% (Sep 17, 4:00 PM)29.85 "Hg (Sep 18, 4:00 PM)
Average62 °F85%30.03 "Hg
* Reported Sep 5 3:00 PM — Sep 20 3:00 PM, Emden, Weather by CustomWeather, © 2014

Note: Actual official high and low records may vary slightly from our data, if they occured in-between our weather recording intervals... More about our weather records

Advertising

Emden weather history for previous 24 hours

 ConditionsComfort  
Time TempWeatherWind HumidityBarometerVisibility
3:00 PM
Sep 20
75 °FOvercast.1 mph60%29.90 "Hg16 mi
2:00 PM73 °FPartly sunny.1 mph62%29.91 "Hg10 mi
1:00 PM72 °FScattered clouds.2 mph67%29.92 "Hg9 mi
12:00 PM70 °FSunny.2 mph71%29.92 "Hg9 mi
11:00 AM67 °FFog.1 mph80%29.92 "Hg4 mi
10:00 AM64 °FSunny.1 mph85%29.92 "Hg3 mi
9:00 AM57 °FPassing clouds.1 mph98%29.91 "Hg1 mi
8:00 AM52 °FSunny.1 mph99%29.91 "Hg0 mi
7:00 AM52 °FPassing clouds.1 mph99%29.90 "Hg0 mi
6:00 AM52 °FPassing clouds.2 mph100%29.90 "Hg0 mi
5:00 AM52 °FOvercast.1 mph99%29.89 "Hg1 mi
4:00 AM53 °FPassing clouds.1 mph99%29.89 "Hg0 mi
3:00 AM55 °FClear.1 mph99%29.90 "Hg0 mi
2:00 AM55 °FPassing clouds.1 mph99%29.89 "Hg0 mi
1:00 AM57 °FPassing clouds.1 mph98%29.90 "Hg2 mi
12:00 AM59 °FOvercast.1 mph96%29.90 "Hg1 mi
10:00 PM
Sep 19
62 °FFog.1 mph92%29.89 "Hg2 mi
9:00 PM64 °FFog.2 mph89%29.88 "Hg3 mi
8:00 PM66 °FFog.2 mph84%29.87 "Hg4 mi
7:00 PM70 °FSunny.3 mph74%29.86 "Hg8 mi
6:00 PM74 °FPassing clouds.2 mph62%29.86 "Hg17 mi
Weather by CustomWeather, © 2014

See weather overviewHow to use our weather pages